Wind_Speed
21 23 27 30 32 34 37 37 36 38 41 41 41 44 47 48 49 50 49 50 50 50 50 50 52 53 53 54 54 54 55 53
23 26 30 33 34 37 40 40 40 43 45 46 48 50 52 52 51 52 51 52 53 54 54 56 57 58 59 59 61 62 61 62
28 31 34 36 37 39 41 42 44 46 49 50 51 53 54 52 52 53 55 56 57 58 60 62 63 66 67 66 67 67 68 65
32 34 36 37 38 41 43 44 47 50 52 53 55 54 54 55 57 58 60 62 64 65 66 67 68 69 70 71 71 71 73 72
36 36 37 39 41 44 44 47 50 51 52 53 53 54 56 59 61 62 65 67 68 69 72 74 74 74 74 74 74 75 76 74
36 37 39 41 44 46 47 48 47 49 51 54 55 57 60 64 66 67 69 71 74 76 77 79 79 79 78 76 76 78 78 78
37 39 42 45 45 45 45 46 48 50 52 53 57 62 65 69 70 71 74 76 79 81 81 81 81 82 82 83 82 80 78 79
38 40 42 43 42 43 46 49 52 52 55 60 63 65 70 74 74 75 78 79 81 81 82 82 84 85 85 83 85 87 83 83
37 38 39 41 45 48 51 52 53 55 60 64 68 71 72 74 76 77 77 80 82 84 85 87 86 87 88 89 93 93 93 90
34 39 42 47 50 51 52 54 58 61 65 68 68 70 73 75 77 79 81 82 83 84 85 85 88 92 93 96 89 86 78 72
42 45 48 50 51 53 55 58 62 63 65 68 71 74 75 77 80 81 82 82 85 87 88 90 94 96 93 81 68 59 53 51
44 46 48 50 53 56 60 63 66 69 71 73 74 76 79 81 82 83 82 83 88 90 92 93 96 84 68 54 46 46 40 48
46 47 51 55 57 61 65 67 68 70 73 74 78 81 82 82 82 80 81 89 91 95 94 83 70 59 45 44 44 43 46 50
49 52 54 59 62 67 70 71 73 74 75 81 85 86 82 85 83 85 86 89 94 89 74 61 50 46 45 46 47 48 50 51
55 58 62 67 70 71 71 72 76 70 72 85 87 84 84 83 85 87 91 94 85 70 60 52 51 50 49 48 50 51 51 51
58 63 68 71 71 72 72 73 73 69 81 93 89 85 85 84 87 87 87 75 62 55 55 55 52 51 49 49 49 49 49 49
65 70 75 76 76 75 75 75 74 80 93 91 87 85 86 87 86 80 69 61 55 56 54 53 54 54 52 53 52 52 52 51
73 76 77 76 71 70 77 80 83 86 87 84 84 84 83 82 71 63 56 54 55 55 56 58 60 61 58 58 56 56 55 54
75 77 76 76 76 76 81 83 83 84 81 81 82 81 76 67 56 52 53 53 56 59 61 62 61 59 57 56 54 53 53 53
Wind_Direction
304 302 301 304 306 305 303 304 303 300 302 300 299 302 304 303 303 304 303 301 300 299 299 300 301 301 300 299 296 295 292 290
295 296 297 300 301 302 303 302 300 301 302 301 300 303 304 303 301 300 298 298 297 297 299 300 299 297 296 295 293 290 288 288
297 299 300 300 297 296 296 296 298 299 299 298 298 300 301 299 296 296 298 299 298 298 297 296 296 294 293 292 291 290 288 287
293 290 291 291 291 292 293 295 295 296 297 298 299 299 298 298 301 301 300 298 296 294 293 291 291 291 291 291 290 290 288 286
286 285 284 285 288 291 290 292 294 297 297 296 296 296 296 297 298 297 296 295 294 295 295 295 294 293 292 291 290 288 287 283
282 283 286 287 288 289 291 294 295 294 294 295 296 296 297 297 297 296 297 298 299 300 297 296 296 295 293 290 289 286 285 283
281 282 282 285 288 291 294 295 295 296 296 297 297 297 298 298 300 299 299 298 297 296 297 296 296 295 295 295 293 291 290 287
282 285 286 289 294 296 298 300 300 301 301 299 300 300 296 298 298 298 298 297 297 297 298 298 299 298 298 296 294 293 290 289
292 294 295 299 301 303 303 301 300 298 297 298 297 298 298 299 299 300 301 301 302 301 301 301 299 298 296 299 300 297 294 290
295 298 301 304 303 300 300 299 297 297 297 298 298 298 300 303 305 305 304 304 302 301 301 300 300 301 300 299 299 294 289 284
306 304 303 304 304 301 300 300 298 297 299 302 305 307 308 308 306 306 304 302 303 304 304 303 304 303 304 303 297 290 284 280
301 302 302 302 300 300 301 302 304 307 307 307 308 309 310 308 306 306 305 304 305 305 306 304 304 306 298 297 292 287 279 269
305 304 304 304 305 305 306 307 307 306 306 308 312 312 309 308 307 306 301 303 304 306 306 310 305 300 300 294 287 278 279 275
305 306 307 310 309 309 309 308 307 309 314 317 313 310 305 306 307 306 306 307 307 310 310 307 306 301 296 291 288 285 283 284
309 311 311 310 311 311 310 309 310 308 308 309 311 309 307 307 306 305 305 307 310 309 307 305 302 299 295 292 288 286 285 285
310 309 309 311 312 311 312 311 306 297 302 309 310 308 308 308 310 309 309 311 308 307 305 303 301 298 296 293 291 289 286 283
310 313 313 312 312 314 315 311 304 300 303 307 309 310 313 313 312 311 309 308 307 306 306 304 301 298 296 293 290 288 285 283
312 311 313 316 314 307 308 307 304 305 307 310 313 314 314 314 312 311 311 309 308 308 307 305 303 301 300 296 293 289 285 281
313 314 316 315 313 308 307 308 308 310 312 314 315 316 315 314 313 312 311 311 311 311 310 308 306 304 302 299 295 291 287 282
Height
5814 5811 5808 5806 5803 5799 5794 5791 5788 5784 5780 5775 5771 5767 5762 5757 5753 5748 5743 5739 5734 5730 5727 5723 5719 5714 5710 5706 5704 5700 5697 5695
5810 5807 5805 5801 5797 5792 5788 5783 5780 5775 5770 5766 5761 5757 5752 5747 5743 5738 5734 5730 5725 5720 5714 5709 5705 5701 5697 5694 5690 5687 5684 5679
5805 5802 5799 5795 5791 5786 5782 5777 5772 5767 5762 5757 5753 5748 5743 5738 5733 5728 5722 5716 5710 5705 5700 5696 5691 5687 5683 5679 5675 5672 5668 5664
5799 5796 5792 5788 5784 5779 5773 5768 5763 5758 5753 5748 5743 5738 5732 5727 5721 5715 5709 5703 5698 5693 5688 5683 5678 5673 5669 5665 5660 5655 5652 5649
5792 5788 5784 5780 5775 5771 5766 5761 5756 5751 5745 5739 5734 5728 5722 5716 5711 5705 5698 5692 5686 5680 5674 5667 5661 5656 5652 5648 5643 5638 5632 5631
5784 5780 5776 5771 5766 5762 5758 5753 5747 5741 5736 5730 5724 5717 5711 5703 5695 5688 5681 5675 5669 5662 5654 5646 5641 5636 5631 5626 5622 5617 5611 5607
5777 5772 5768 5763 5758 5754 5749 5743 5737 5730 5724 5717 5710 5703 5695 5687 5680 5674 5667 5660 5652 5644 5637 5630 5623 5615 5608 5601 5596 5590 5586 5580
5768 5763 5758 5754 5749 5743 5737 5730 5723 5716 5710 5703 5696 5689 5682 5674 5667 5661 5653 5644 5635 5627 5618 5608 5599 5591 5583 5575 5569 5562 5560 5553
5757 5753 5748 5743 5737 5731 5725 5718 5711 5705 5698 5691 5684 5677 5669 5660 5651 5641 5631 5621 5612 5602 5593 5584 5575 5566 5558 5550 5540 5530 5522 5518
5749 5744 5739 5733 5727 5722 5715 5708 5700 5693 5686 5679 5670 5662 5652 5641 5630 5619 5609 5599 5589 5580 5570 5559 5551 5541 5531 5521 5509 5500 5491 5483
5739 5732 5727 5721 5714 5708 5701 5694 5687 5679 5671 5660 5649 5638 5628 5618 5608 5599 5588 5577 5567 5556 5546 5534 5523 5511 5498 5488 5478 5471 5468 5465
5729 5725 5718 5711 5704 5697 5689 5680 5671 5661 5651 5640 5630 5620 5610 5599 5589 5578 5567 5554 5544 5531 5520 5508 5494 5482 5472 5463 5459 5455 5453 5451
5720 5714 5708 5699 5691 5682 5673 5664 5655 5645 5635 5624 5614 5603 5591 5579 5567 5555 5544 5532 5519 5509 5494 5481 5470 5461 5454 5449 5445 5443 5439 5435
5709 5702 5694 5686 5677 5668 5658 5648 5638 5627 5617 5606 5595 5582 5570 5558 5547 5534 5522 5510 5497 5483 5472 5462 5454 5448 5441 5436 5432 5428 5425 5422
5696 5688 5680 5671 5662 5652 5642 5631 5621 5609 5599 5588 5575 5562 5551 5539 5527 5513 5501 5486 5473 5463 5454 5447 5441 5435 5429 5423 5417 5413 5410 5407
5687 5678 5668 5658 5648 5637 5624 5614 5603 5591 5580 5567 5555 5542 5529 5517 5505 5490 5477 5464 5455 5447 5440 5433 5426 5419 5414 5409 5403 5398 5395 5392
5673 5663 5652 5641 5630 5618 5606 5596 5585 5574 5562 5549 5536 5523 5508 5494 5481 5468 5457 5448 5441 5433 5425 5418 5411 5404 5400 5393 5388 5382 5378 5376
5657 5647 5635 5623 5612 5602 5591 5579 5567 5554 5541 5528 5515 5502 5489 5475 5462 5451 5442 5435 5427 5419 5411 5403 5395 5385 5380 5373 5368 5363 5360 5357
5641 5628 5616 5605 5595 5584 5572 5559 5547 5533 5520 5508 5495 5483 5471 5459 5448 5439 5431 5423 5414 5405 5396 5386 5376 5366 5360 5353 5348 5343 5340 5337